Temp
12 12 12 12 12 12 12 12 12 12 12 12 12 12 13 13 13 13 13 12 13 13 13 13 13 13 14 14 15 14 15 18 18 17 16 15 15 15 14 14 14 13 13 12 14
12 12 12 12 12 12 12 12 12 12 12 12 12 13 13 13 13 13 13 13 13 13 13 13 13 13 12 13 15 14 15 17 16 16 16 16 16 15 15 15 14 13 12 14 14
12 12 12 12 12 12 12 12 12 12 12 12 12 13 13 13 13 13 13 13 13 13 13 13 14 14 13 14 15 15 15 16 16 16 16 16 16 16 16 16 15 13 12 14 14
12 12 12 12 12 12 12 12 12 12 12 12 13 13 13 13 14 14 14 13 13 13 13 13 12 13 15 15 15 14 15 16 15 15 16 16 16 16 16 15 15 13 14 14 12
12 12 12 12 12 12 12 12 12 13 13 12 13 13 13 13 13 13 14 13 13 13 13 12 13 13 14 15 15 16 16 16 15 15 15 16 16 15 15 14 13 13 14 12 11
13 12 12 12 12 12 12 13 13 13 13 13 13 13 13 13 13 14 14 14 13 12 12 14 14 14 13 14 15 15 16 16 15 16 16 16 16 15 15 14 13 13 12 11 11
13 12 12 12 12 12 12 13 13 13 13 13 13 13 13 13 13 14 14 13 14 14 12 14 14 14 14 14 15 15 16 16 16 16 16 16 16 15 14 14 13 12 12 11 11
13 13 12 12 12 12 13 13 13 13 13 13 13 13 13 13 13 14 14 14 14 14 14 14 15 14 14 15 15 16 17 14 16 16 16 15 12 15 14 14 13 13 12 12 11
13 13 13 12 12 12 13 13 13 13 13 13 13 13 14 13 14 14 14 14 14 14 14 15 15 14 15 16 17 17 18 18 18 17 17 17 16 16 14 15 14 13 12 12 12
13 13 13 12 12 13 13 13 13 13 13 13 13 14 14 13 14 14 14 14 14 15 15 15 14 16 16 17 18 18 18 19 19 18 17 18 18 17 15 15 15 14 13 13 12
13 13 13 12 12 13 13 12 13 13 13 14 14 14 13 14 14 14 14 14 13 14 15 16 13 15 19 18 18 19 20 20 19 18 18 19 18 18 16 16 16 15 14 13 13
13 13 13 12 12 13 12 13 13 14 14 14 14 14 14 14 14 14 15 13 15 15 16 16 17 18 18 18 18 19 20 20 19 19 19 20 19 18 17 17 16 16 15 14 14
13 13 13 12 12 12 13 13 13 14 14 15 14 14 14 14 15 15 15 14 15 16 16 15 18 17 18 19 19 19 20 20 20 19 19 20 19 18 18 17 17 16 16 15 15
13 13 13 13 12 12 13 13 14 14 15 16 15 15 15 15 15 16 15 15 16 16 17 16 18 18 19 19 19 17 19 20 20 20 18 20 20 20 19 18 17 17 17 17 16
13 13 13 13 13 12 13 13 14 14 18 16 16 15 16 16 16 16 15 15 16 17 17 17 18 19 19 19 19 19 19 20 20 21 22 21 20 20 20 19 19 19 17 18 17
13 13 13 13 13 13 13 13 14 15 19 17 16 16 16 16 17 15 15 15 16 16 17 18 18 18 19 19 19 19 19 20 21 20 14 21 19 15 17 19 20 20 19 18 18
13 13 13 13 13 13 13 13 14 17 18 18 17 17 17 17 17 17 16 16 17 18 18 19 19 19 18 19 20 20 20 19 21 22 22 21 21 19 19 19 20 20 20 19 18
13 13 13 13 13 13 13 13 16 18 18 18 18 18 18 18 18 18 18 18 19 19 19 20 20 19 19 19 19 21 21 22 23 22 24 22 22 20 19 20 19 19 19 19 19
13 13 13 13 13 13 13 15 17 18 18 18 18 19 19 19 17 18 19 19 19 19 18 21 20 19 19 19 20 19 20 21 22 23 23 23 22 22 20 20 19 19 19 19 19
13 13 13 13 13 13 12 16 17 17 16 17 18 19 19 19 18 19 19 18 19 19 19 17 19 20 20 19 20 20 20 21 22 22 22 23 22 21 20 20 19 19 19 19 19
12 12 13 13 12 13 14 17 16 16 16 17 18 19 19 19 19 20 18 19 19 19 19 20 20 20 20 20 20 20 21 21 22 22 23 23 22 21 20 19 19 19 19 19 18
12 12 13 13 12 13 15 16 15 16 16 17 17 18 19 19 19 19 19 19 18 18 19 19 20 21 22 20 19 20 20 20 21 21 22 21 21 20 19 19 19 18 18 18 17
12 11 13 13 13 14 15 16 15 16 17 17 17 18 18 19 19 19 19 18 18 18 19 19 20 22 22 21 19 20 20 19 20 21 21 21 22 20 20 19 18 18 18 17 16
11 12 12 13 13 14 16 16 16 16 16 16 17 18 18 18 18 19 19 18 18 18 18 18 20 21 21 21 20 20 20 20 20 20 20 21 20 20 19 19 18 18 17 16 16
12 14 12 12 13 14 16 16 16 17 16 16 17 18 18 19 19 19 19 18 18 18 18 18 19 19 20 20 20 20 20 19 19 19 20 20 20 19 18 17 16 16 16 16 15
12 12 12 14 14 14 15 15 16 17 16 17 17 18 19 19 19 20 20 19 19 18 18 19 19 18 18 19 19 20 19 19 19 19 19 19 19 17 15 15 15 15 15 15 15
10 11 12 14 15 14 15 15 16 16 16 17 17 18 19 18 18 19 19 19 19 18 18 19 19 18 19 18 18 19 19 19 19 19 19 18 17 15 14 14 14 15 14 14 13
Height
3167 3168 3168 3169 3170 3171 3173 3175 3176 3179 3181 3182 3183 3183 3184 3184 3184 3184 3184 3184 3183 3183 3182 3182 3182 3182 3183 3184 3184 3184 3184 3184 3185 3186 3188 3190 3189 3190 3190 3189 3189 3188 3189 3186 3184
3167 3168 3168 3169 3170 3171 3174 3175 3177 3179 3182 3183 3184 3184 3185 3186 3186 3185 3186 3184 3183 3184 3183 3183 3184 3184 3187 3186 3185 3184 3181 3185 3188 3189 3189 3190 3190 3191 3191 3191 3189 3188 3187 3184 3184
3167 3167 3168 3168 3170 3172 3174 3176 3178 3180 3183 3184 3185 3186 3186 3187 3188 3187 3186 3185 3184 3183 3183 3184 3185 3186 3187 3188 3188 3185 3186 3187 3189 3190 3190 3190 3191 3192 3191 3191 3191 3189 3186 3184 3184
3166 3167 3168 3168 3170 3172 3174 3176 3179 3181 3184 3185 3186 3187 3188 3188 3193 3187 3187 3186 3184 3184 3184 3185 3187 3190 3191 3187 3188 3182 3187 3188 3189 3190 3190 3191 3191 3191 3192 3191 3192 3188 3185 3184 3184
3165 3166 3167 3168 3170 3172 3174 3177 3180 3182 3184 3186 3187 3188 3189 3190 3191 3187 3187 3186 3185 3184 3184 3187 3190 3190 3191 3190 3190 3189 3190 3189 3189 3189 3190 3190 3190 3190 3191 3191 3190 3187 3185 3185 3187
3164 3166 3167 3168 3170 3172 3175 3178 3180 3183 3185 3187 3188 3188 3189 3193 3189 3188 3188 3188 3187 3187 3188 3188 3188 3189 3189 3190 3189 3190 3189 3189 3189 3189 3188 3188 3188 3188 3190 3190 3188 3187 3186 3187 3189
3164 3165 3166 3168 3170 3173 3176 3179 3181 3183 3186 3188 3188 3189 3190 3192 3188 3188 3189 3189 3189 3189 3190 3189 3188 3188 3190 3190 3189 3189 3187 3187 3187 3186 3187 3190 3191 3188 3187 3189 3189 3189 3189 3189 3190
3162 3164 3166 3168 3171 3173 3176 3179 3181 3184 3187 3188 3189 3190 3192 3189 3188 3189 3190 3190 3190 3190 3189 3187 3187 3187 3189 3190 3189 3188 3186 3179 3187 3186 3185 3187 3170 3186 3186 3189 3190 3191 3190 3189 3190
3161 3163 3165 3168 3171 3174 3176 3179 3182 3185 3187 3189 3190 3190 3194 3189 3189 3190 3191 3192 3191 3190 3188 3186 3185 3186 3188 3188 3190 3187 3185 3185 3185 3186 3186 3185 3183 3186 3186 3190 3191 3191 3190 3191 3191
3160 3163 3165 3168 3171 3174 3176 3180 3184 3186 3188 3189 3191 3192 3191 3191 3190 3191 3191 3192 3191 3189 3187 3188 3191 3191 3187 3185 3187 3187 3188 3185 3185 3187 3187 3185 3185 3185 3187 3189 3190 3191 3191 3191 3192
3159 3162 3164 3168 3171 3174 3177 3182 3188 3190 3188 3190 3192 3192 3190 3190 3190 3191 3190 3191 3190 3190 3187 3194 3171 3183 3187 3185 3188 3186 3184 3184 3185 3186 3184 3185 3185 3186 3187 3188 3190 3191 3191 3192 3193
3158 3161 3164 3167 3171 3174 3177 3180 3182 3186 3189 3188 3190 3190 3190 3190 3193 3191 3192 3193 3193 3190 3190 3190 3187 3189 3185 3186 3187 3185 3185 3183 3188 3186 3184 3184 3185 3186 3187 3188 3190 3191 3192 3193 3193
3156 3160 3163 3167 3171 3174 3177 3181 3184 3186 3188 3188 3188 3190 3191 3191 3193 3193 3192 3193 3192 3191 3189 3183 3188 3186 3185 3186 3186 3186 3184 3185 3185 3186 3185 3184 3185 3187 3188 3189 3190 3191 3192 3193 3194
3155 3158 3162 3167 3173 3175 3178 3181 3184 3186 3187 3187 3187 3189 3190 3190 3194 3194 3192 3195 3192 3189 3192 3189 3192 3188 3186 3186 3187 3189 3186 3185 3184 3185 3185 3183 3187 3186 3186 3189 3191 3191 3191 3193 3193
3153 3157 3162 3167 3171 3174 3177 3181 3184 3186 3181 3185 3186 3187 3190 3191 3192 3193 3192 3193 3191 3190 3195 3188 3191 3188 3186 3188 3188 3188 3186 3185 3182 3177 3179 3180 3183 3189 3190 3188 3189 3190 3192 3193 3193
3152 3156 3161 3166 3170 3174 3177 3181 3185 3189 3177 3182 3183 3185 3189 3190 3192 3191 3191 3191 3189 3188 3191 3191 3191 3189 3188 3189 3190 3187 3187 3184 3180 3176 3194 3182 3181 3195 3191 3188 3187 3187 3190 3192 3193
3151 3156 3161 3165 3169 3173 3178 3182 3187 3179 3179 3181 3182 3184 3186 3188 3190 3190 3191 3191 3187 3186 3185 3185 3185 3187 3189 3189 3188 3187 3185 3190 3178 3174 3176 3177 3176 3184 3186 3184 3187 3189 3188 3188 3190
3150 3155 3160 3165 3169 3173 3178 3184 3182 3176 3177 3179 3180 3183 3185 3185 3188 3189 3189 3187 3185 3189 3178 3181 3184 3187 3189 3189 3189 3183 3181 3175 3169 3173 3167 3173 3174 3181 3183 3186 3186 3188 3188 3189 3189
3150 3155 3160 3165 3169 3174 3178 3181 3178 3176 3177 3179 3180 3181 3183 3184 3188 3188 3186 3184 3184 3184 3185 3179 3184 3188 3189 3189 3190 3187 3185 3182 3177 3168 3168 3165 3172 3175 3181 3183 3185 3186 3186 3186 3186
3150 3156 3161 3165 3169 3174 3177 3175 3176 3177 3179 3179 3179 3180 3181 3183 3188 3186 3184 3185 3184 3185 3186 3184 3188 3187 3189 3189 3188 3187 3186 3182 3175 3173 3171 3169 3174 3176 3182 3183 3183 3185 3184 3183 3183
3151 3158 3160 3164 3170 3173 3176 3176 3177 3178 3179 3180 3178 3178 3177 3180 3183 3182 3185 3185 3185 3186 3186 3184 3185 3188 3186 3186 3186 3186 3182 3181 3180 3179 3174 3172 3174 3179 3181 3182 3182 3182 3182 3181 3180
3151 3161 3160 3165 3171 3173 3175 3175 3176 3178 3178 3178 3178 3177 3177 3178 3181 3183 3182 3183 3185 3186 3186 3186 3184 3181 3181 3185 3188 3186 3185 3185 3180 3180 3176 3179 3178 3175 3179 3180 3180 3179 3178 3177 3175
3154 3155 3159 3164 3169 3173 3174 3175 3176 3177 3178 3178 3179 3179 3178 3179 3182 3181 3182 3182 3184 3186 3186 3187 3184 3178 3177 3182 3186 3184 3185 3186 3183 3180 3178 3178 3174 3174 3177 3177 3177 3176 3175 3173 3171
3154 3158 3158 3162 3166 3170 3173 3174 3175 3175 3176 3176 3178 3179 3180 3181 3182 3182 3183 3184 3184 3186 3186 3187 3185 3181 3177 3178 3181 3182 3183 3182 3181 3179 3177 3174 3173 3174 3175 3174 3174 3173 3172 3170 3167
3152 3159 3158 3160 3164 3169 3170 3172 3173 3174 3174 3175 3176 3178 3179 3179 3181 3182 3182 3183 3185 3184 3185 3187 3184 3182 3181 3181 3181 3180 3179 3179 3179 3178 3177 3174 3173 3173 3170 3171 3171 3170 3168 3166 3163
3154 3158 3158 3163 3164 3168 3169 3171 3172 3173 3173 3175 3175 3176 3177 3177 3178 3178 3180 3181 3182 3183 3183 3183 3183 3183 3182 3181 3178 3176 3174 3174 3174 3173 3171 3171 3171 3167 3168 3168 3167 3166 3164 3161 3159
3149 3153 3156 3161 3163 3166 3167 3170 3171 3172 3173 3173 3174 3175 3176 3175 3176 3178 3179 3179 3180 3182 3181 3181 3180 3180 3178 3178 3177 3175 3170 3170 3170 3169 3169 3169 3168 3166 3165 3164 3164 3163 3159 3157 3154
Wind_Speed
8 8 8 9 8 9 12 15 14 12 10 9 7 6 4 2 1 0 2 2 2 3 6 5 4 8 9 8 10 11 3 8 6 9 8 7 7 6 7 7 5 5 2 8 2
8 8 9 9 9 10 13 16 15 12 10 9 6 4 3 2 2 2 1 1 2 4 5 6 6 9 4 3 6 4 4 8 7 6 8 6 5 5 6 4 5 6 7 1 2
8 9 9 10 10 12 14 16 15 13 10 8 5 4 4 5 8 6 0 4 4 1 4 4 7 9 5 2 2 1 7 8 6 5 6 5 5 5 4 5 4 2 4 1 5
9 10 10 10 10 12 14 16 15 13 10 8 5 4 5 8 4 6 3 3 1 2 5 7 4 2 2 2 1 4 4 5 5 3 5 4 4 4 2 3 2 2 5 1 9
10 11 11 11 11 13 14 16 16 13 10 7 4 4 4 3 7 2 5 2 6 10 10 6 3 1 1 1 1 2 2 2 4 3 4 4 4 1 1 3 4 4 8 7 13
11 12 12 11 11 14 14 16 16 13 10 6 4 3 4 5 9 3 5 3 9 9 7 7 4 2 1 1 2 1 2 3 4 4 3 5 4 4 2 4 5 4 6 11 12
13 13 13 11 12 14 14 16 16 13 8 6 5 2 1 6 4 4 4 5 8 8 2 3 2 4 3 4 3 2 3 4 5 6 4 3 7 7 4 8 8 7 7 10 12
14 14 14 12 12 13 14 17 16 12 8 8 5 1 1 4 4 7 6 5 4 4 4 3 4 3 5 2 0 2 5 1 3 3 3 6 8 4 6 8 8 7 8 9 11
15 15 15 13 12 13 15 17 15 11 9 8 4 1 5 6 5 7 7 1 2 3 3 4 6 4 2 2 6 4 3 2 4 3 2 3 1 3 6 8 8 8 8 9 10
16 16 16 14 13 15 16 16 13 10 9 7 4 1 5 3 5 7 8 3 0 1 4 4 1 5 9 3 6 5 2 4 3 2 2 2 1 2 7 10 10 10 10 10 11
18 17 17 15 15 17 18 15 9 6 10 10 4 1 4 6 6 8 5 2 3 5 8 4 12 11 7 9 6 4 2 7 5 1 4 2 2 4 7 10 11 10 12 12 11
18 18 18 16 17 19 19 19 15 10 5 10 9 10 6 6 4 6 5 4 4 7 6 10 3 8 8 5 3 1 2 10 2 3 0 4 9 8 5 8 10 10 11 11 12
19 19 19 18 18 19 18 16 13 7 5 10 10 10 7 6 6 9 5 7 6 6 7 7 6 4 3 2 5 5 5 4 1 3 5 9 12 9 7 7 7 8 9 10 11
20 20 20 19 19 18 16 14 11 6 4 11 10 9 11 8 5 9 9 5 6 8 5 5 4 3 1 3 3 3 4 2 4 8 10 7 6 5 9 7 6 8 10 9 10
21 21 21 21 19 20 19 14 11 8 6 11 11 10 9 9 7 9 10 9 8 6 2 3 2 1 2 2 2 4 2 3 4 10 10 8 7 5 4 7 5 8 6 7 7
22 22 22 22 20 18 16 13 11 6 3 9 11 11 13 10 7 7 9 9 8 10 10 9 4 3 5 2 4 6 6 6 8 11 13 13 9 5 14 7 6 8 5 6 6
22 22 22 22 23 20 16 14 7 13 3 8 12 12 13 11 9 8 9 10 11 10 14 10 8 4 4 7 6 7 8 9 10 6 5 2 2 2 10 6 4 5 6 8 9
22 22 24 22 20 20 18 10 11 10 5 5 9 13 14 12 10 9 9 14 8 8 17 7 2 6 4 6 7 11 10 13 4 3 1 5 6 9 5 5 5 9 9 10 10
22 23 23 22 22 21 18 13 12 4 4 5 9 13 14 13 5 10 10 10 6 4 2 1 8 5 2 3 4 8 7 8 12 14 8 5 8 5 4 1 1 5 10 12 14
22 21 22 24 23 22 11 17 4 5 3 6 10 11 14 13 13 13 10 6 5 7 7 3 6 5 1 4 4 7 11 14 13 4 6 10 12 19 3 2 6 8 9 11 14
23 19 23 24 23 21 14 8 7 4 3 6 10 8 12 15 15 12 4 4 5 4 8 5 8 5 4 2 7 10 14 4 10 10 8 9 10 1 4 8 11 12 14 16 16
24 10 24 24 23 17 15 9 10 5 5 6 8 5 9 12 13 11 8 5 5 4 7 6 8 13 2 3 6 8 10 9 15 8 12 8 17 4 10 12 13 19 15 16 18
16 15 24 26 17 17 14 12 10 7 5 5 10 8 8 7 6 9 8 3 4 5 5 4 9 16 12 9 3 0 5 8 11 13 15 12 11 7 14 15 15 12 13 17 19
15 7 21 28 18 14 17 14 10 8 8 8 8 9 9 9 8 4 6 2 3 7 8 7 13 16 17 16 14 14 14 12 12 15 18 20 20 18 19 18 14 14 17 20 22
16 7 14 21 22 14 9 13 13 9 9 6 7 11 11 11 9 8 7 3 2 4 4 8 14 14 16 14 17 17 17 17 18 19 22 25 23 22 13 12 13 17 19 21 21
13 7 11 8 19 20 13 11 11 8 8 9 8 11 12 10 12 9 6 6 7 3 8 11 13 13 15 17 19 19 21 21 22 22 21 19 17 7 10 10 14 19 20 19 16
17 15 12 13 15 19 19 14 10 8 7 7 9 10 11 7 7 6 6 8 6 6 7 7 11 12 18 19 22 26 22 14 14 14 14 13 12 11 13 15 17 20 16 15 15
Wind_Direction
194 193 191 185 187 187 193 181 174 166 165 163 163 159 165 159 124 343 24 298 350 67 55 80 75 93 120 127 132 165 180 99 92 70 113 119 78 88 95 79 73 53 122 191 146
199 196 191 186 192 190 193 182 176 168 170 168 167 162 149 103 46 347 320 23 105 103 86 100 95 101 86 100 185 226 335 100 100 100 105 109 104 79 91 50 35 38 114 282 162
204 197 189 188 197 193 192 182 176 169 176 173 170 158 119 77 62 242 87 107 128 99 97 99 110 104 73 85 245 28 58 111 114 116 113 108 115 99 77 75 19 312 160 292 158
207 197 189 190 198 193 191 185 175 173 179 178 177 157 122 101 35 280 133 137 122 77 101 117 114 65 104 43 277 58 68 123 151 178 137 123 116 102 80 36 65 51 14 92 159
208 198 190 191 195 190 190 186 176 178 182 186 183 164 153 53 270 232 155 122 44 105 126 143 141 48 150 341 16 88 94 147 216 238 172 167 152 77 126 64 140 359 21 148 158
207 198 192 189 192 188 190 185 180 183 188 186 175 164 147 346 272 213 185 107 77 91 84 90 115 109 304 335 239 233 360 196 179 168 192 196 197 178 192 139 151 344 141 159 168
206 199 193 187 192 189 187 184 184 188 187 186 167 150 203 261 238 174 153 116 101 95 58 35 101 120 274 329 260 222 273 184 208 224 230 215 186 139 142 158 152 147 147 166 174
206 198 193 186 192 187 182 186 187 188 187 192 200 263 76 260 211 156 137 100 50 64 49 95 150 151 241 296 130 221 255 66 177 175 294 213 249 179 127 160 159 165 160 167 179
204 197 194 187 189 182 181 184 184 187 191 189 200 108 250 260 198 173 154 107 49 81 42 108 130 150 129 197 133 182 164 138 144 184 290 288 349 164 155 165 181 179 179 167 176
202 197 194 185 186 178 181 176 180 189 191 189 197 127 260 247 205 195 173 159 152 15 50 178 21 193 135 127 141 83 130 82 135 132 217 255 172 195 188 177 189 189 190 180 178
200 195 193 183 185 178 175 164 171 210 203 153 263 223 210 222 213 220 166 141 270 285 275 251 245 128 103 93 115 86 105 99 74 245 174 67 175 192 202 185 197 196 194 195 192
197 193 190 182 184 179 173 169 181 200 208 236 220 208 187 178 192 215 171 188 258 269 261 218 306 111 93 113 135 171 75 70 53 99 124 95 89 115 167 192 205 203 219 214 207
195 191 188 182 184 180 179 180 176 188 196 219 221 214 214 178 177 228 201 224 264 260 236 204 50 76 92 209 259 17 6 4 212 156 147 140 127 112 128 147 187 185 208 213 214
193 190 186 182 182 180 181 179 178 185 233 202 205 205 196 176 222 205 213 203 252 270 225 172 143 99 1 292 319 296 341 334 259 163 264 179 39 160 137 127 140 154 165 165 179
192 189 186 183 177 175 184 178 171 176 274 166 172 185 190 165 176 201 199 217 240 257 276 193 290 248 259 316 333 22 350 302 268 244 186 226 95 80 155 142 146 151 149 171 184
191 188 185 181 182 181 179 169 164 213 218 178 193 188 182 198 193 195 198 211 230 244 220 244 235 202 332 246 286 280 270 280 257 98 16 267 133 199 322 202 178 182 173 192 208
191 187 184 181 181 177 173 160 186 243 172 182 187 184 183 182 185 179 197 225 236 214 260 220 219 208 244 251 261 272 258 261 298 201 172 54 261 177 147 242 179 223 243 234 228
189 185 184 182 178 173 167 174 239 220 176 185 184 187 197 186 200 198 205 226 239 271 234 141 71 204 199 268 249 298 309 330 281 16 189 107 102 146 176 270 266 247 257 259 258
186 184 183 179 177 173 165 198 208 213 191 201 187 197 200 200 186 206 226 250 228 258 46 291 133 160 143 264 278 283 320 317 311 270 251 167 112 278 154 130 299 291 272 270 263
182 180 186 180 178 175 190 220 253 201 194 205 197 204 199 196 205 203 224 234 239 241 227 287 204 166 285 259 253 281 309 305 289 319 293 40 273 77 148 318 319 298 294 293 283
175 167 188 183 180 183 198 205 211 222 232 201 213 192 210 184 206 209 218 210 233 245 222 243 194 238 247 206 359 310 293 260 297 298 308 293 99 169 304 312 317 304 292 286 289
165 172 191 184 184 197 203 233 223 220 264 225 235 231 211 177 205 204 235 256 200 209 214 239 286 258 108 311 279 297 285 286 307 308 307 322 275 331 314 310 305 305 298 299 291
152 214 194 185 192 203 208 231 226 234 241 219 199 204 207 198 231 244 239 199 184 189 273 259 263 264 237 185 222 155 342 301 298 284 268 273 289 326 314 312 309 303 303 306 310
157 180 194 194 188 222 218 222 228 250 235 216 198 205 206 223 221 216 192 201 227 212 233 245 276 290 304 328 321 311 295 294 295 291 302 297 309 309 307 309 302 300 302 306 308
146 204 203 204 208 197 213 219 222 230 223 213 214 208 215 207 188 200 199 207 205 272 285 252 281 291 287 291 290 292 287 283 284 285 287 296 297 305 316 304 305 310 307 305 306
167 184 215 197 212 208 222 209 211 222 204 217 212 209 197 216 197 212 216 239 266 288 269 269 271 281 287 286 288 293 296 291 284 283 281 288 295 339 331 324 318 320 313 311 306
195 189 164 217 198 209 215 209 209 229 232 209 209 203 205 213 184 208 261 259 289 256 281 275 294 300 299 303 303 295 286 292 295 295 300 300 325 328 331 333 328 322 308 309 317